Theta_e
302 304 305 303 299 298 298 300 301 300 301 302 300 300 301 298 299 300 299 299 298 297 298 300 300 300 299 298 298 300 300 299 298 294 294 292 288 287 287 287 287 287 288 288
301 303 302 301 300 301 301 302 302 303 302 302 301 303 301 300 299 300 301 300 299 297 297 298 299 299 299 298 297 297 299 298 298 295 293 291 288 287 287 287 287 286 287 287
301 303 302 301 302 303 302 302 301 301 303 301 301 302 301 301 299 300 300 300 299 298 298 298 297 299 298 297 295 295 295 294 294 293 292 290 288 287 287 286 286 286 286 286
302 304 303 302 302 302 303 301 301 304 303 304 300 307 302 303 302 301 300 299 298 297 298 298 297 298 298 296 294 293 293 293 292 292 290 289 288 287 285 285 285 285 286 286
301 304 303 303 304 302 303 304 304 304 303 303 304 304 306 304 308 304 301 300 297 297 298 298 298 298 297 295 294 293 293 292 291 290 288 288 287 286 285 285 285 285 285 285
305 303 304 304 305 304 303 305 303 301 304 310 307 307 316 313 307 302 301 299 297 296 298 298 297 298 295 294 293 293 292 291 290 289 288 288 287 286 285 285 285 285 285 284
304 305 304 304 305 305 304 305 309 312 310 314 301 305 312 305 302 302 301 299 296 297 297 297 296 294 294 293 293 292 292 290 289 288 287 287 287 286 285 285 284 284 284 284
303 303 305 304 304 304 304 306 310 312 315 310 302 310 314 302 300 300 298 297 297 297 297 297 296 294 293 293 293 292 291 290 288 287 287 286 286 286 285 284 284 284 284 284
304 307 303 304 304 303 305 305 306 305 293 309 310 309 309 303 300 300 300 298 298 297 297 296 295 294 294 294 293 292 291 289 288 287 287 286 286 285 285 285 284 283 283 283
303 310 304 305 303 304 304 302 307 305 309 311 311 307 312 305 302 300 299 300 298 296 296 296 295 294 294 294 293 292 291 289 288 287 287 286 285 285 285 285 284 284 284 283
306 309 307 305 305 305 304 304 304 305 308 312 312 312 301 302 301 302 300 300 298 297 297 296 295 294 295 294 294 292 290 289 288 287 286 286 285 285 285 285 284 283 284 283
308 306 309 308 303 303 303 304 305 311 310 304 307 312 302 299 300 301 301 299 297 296 296 295 295 294 293 294 293 292 290 289 287 287 287 286 285 285 285 284 284 283 284 283
308 306 307 309 304 302 305 304 303 303 304 306 310 311 302 299 301 300 301 299 297 296 295 294 294 294 293 293 293 292 291 289 287 287 286 286 285 285 284 284 284 284 284 284
306 305 308 313 310 305 307 306 303 305 305 307 307 308 307 306 305 303 302 301 298 296 295 294 294 294 293 293 292 292 291 289 287 286 286 285 285 285 285 284 284 284 284 284
306 307 308 309 306 304 307 307 304 304 305 309 309 306 307 305 305 303 302 300 298 297 296 295 295 295 294 293 292 292 291 289 288 286 285 285 285 284 284 284 284 284 284 284
304 309 306 302 303 305 307 305 304 305 305 303 304 305 304 305 303 303 301 299 298 297 296 296 295 295 294 293 292 291 290 290 288 286 285 285 284 284 284 284 284 283 284 284
308 300 303 303 297 303 304 303 305 305 303 305 307 307 305 306 305 304 302 299 297 297 297 296 296 295 295 294 293 291 290 290 288 286 285 284 284 284 284 284 284 283 283 284
307 301 294 297 294 305 305 301 304 306 305 303 304 304 305 305 303 301 299 299 296 296 297 296 296 296 296 295 293 292 290 289 287 286 285 284 284 284 283 283 283 283 283 283
304 303 302 302 292 300 304 300 302 305 305 302 304 304 303 302 299 299 297 296 294 295 296 297 298 297 296 295 293 291 289 288 287 286 285 284 284 284 283 283 283 283 283 283
304 303 301 298 297 301 299 300 298 301 301 297 301 302 301 298 300 299 296 295 294 295 296 297 298 298 297 295 293 290 289 288 287 287 286 285 285 284 284 283 283 283 283 283
306 306 307 295 293 296 297 298 297 300 300 296 297 297 296 297 297 296 294 293 295 295 295 297 298 298 298 296 293 290 289 288 289 287 286 286 285 284 284 283 283 283 283 283
303 305 304 300 299 303 296 297 300 297 295 295 295 295 296 295 295 294 293 292 293 293 295 296 296 296 296 296 293 290 289 289 288 288 286 286 285 284 283 283 283 283 282 283
298 297 298 301 301 296 294 294 294 294 294 296 296 296 296 295 294 292 292 291 291 292 293 295 295 295 296 295 293 290 290 290 288 288 286 285 284 284 283 283 283 282 282 282
295 294 295 299 297 295 293 292 292 292 293 294 295 296 295 295 293 291 290 290 290 291 292 294 295 294 294 294 293 292 291 290 289 287 286 285 283 283 282 283 282 282 281 281
294 295 295 294 295 293 292 291 291 292 292 292 293 294 293 293 291 290 290 289 290 291 292 293 293 294 295 294 293 292 291 290 288 286 285 283 283 282 282 282 283 282 283 283
289 293 296 297 295 296 295 291 290 291 290 290 290 291 291 292 290 290 288 289 290 291 292 292 293 294 294 293 293 292 290 290 288 286 285 284 283 282 282 281 281 282 282 283
Wind_Speed
3 3 6 9 5 5 7 4 3 2 1 3 5 9 16 7 7 12 14 14 15 12 10 15 14 12 9 6 6 7 7 8 5 3 2 6 15 15 18 21 22 22 23 25
6 5 4 6 5 4 4 4 4 2 2 3 4 13 12 8 8 12 18 15 14 8 8 16 17 14 11 9 7 7 7 6 6 4 4 6 6 13 16 18 20 21 23 25
6 1 4 4 4 6 3 5 4 3 2 1 5 8 5 5 6 5 3 3 9 14 14 12 18 18 13 11 9 9 9 8 7 6 5 5 6 7 12 18 19 20 22 23
3 0 4 3 4 4 4 4 5 6 3 3 3 5 6 6 9 6 3 7 9 13 13 15 18 21 18 15 12 10 9 8 8 7 4 6 6 6 11 14 16 18 20 22
5 3 3 3 2 3 3 3 5 4 4 3 3 2 8 5 6 5 6 5 7 12 16 16 22 25 21 18 16 13 11 9 8 8 7 10 13 12 11 12 14 17 19 21
3 1 2 2 2 2 7 6 6 5 3 2 1 3 6 2 1 6 4 7 5 7 9 14 17 24 22 18 16 14 13 11 9 9 9 9 13 13 11 12 14 17 18 20
3 2 1 1 5 2 1 5 1 3 2 4 2 3 10 4 6 2 8 9 2 4 7 10 15 18 24 23 20 17 15 13 11 10 10 9 12 11 11 12 14 15 17 18
6 3 4 2 1 5 4 4 5 6 3 3 3 5 5 4 3 2 3 3 4 4 4 7 16 20 24 27 24 21 18 16 14 13 12 10 11 10 10 12 13 15 16 16
4 1 3 3 2 1 4 3 2 7 3 3 2 6 5 2 5 5 5 2 3 6 8 9 13 19 25 27 26 22 20 17 16 15 14 13 12 12 11 11 10 11 14 15
6 4 2 3 2 2 1 3 3 2 3 3 3 5 4 3 5 7 5 0 5 5 7 10 18 21 23 27 26 22 21 20 18 16 15 15 14 13 12 12 12 13 13 13
5 4 1 1 4 5 1 1 4 3 3 4 3 5 5 5 0 2 4 4 7 9 10 10 17 22 28 29 27 24 22 20 20 19 16 16 15 15 13 12 13 13 14 13
3 5 4 4 1 1 1 3 5 3 5 1 2 5 4 4 1 1 5 6 6 7 7 7 14 19 23 28 30 28 25 23 22 20 19 16 15 15 14 14 13 13 14 13
5 0 3 2 1 2 4 4 3 4 2 5 5 5 1 2 3 6 6 7 7 6 6 6 12 17 21 24 29 30 29 27 25 22 21 19 17 16 14 14 14 14 14 14
5 3 3 5 3 4 4 5 4 4 3 4 4 5 5 6 6 6 8 8 8 6 7 8 10 18 22 26 29 31 31 30 29 26 24 22 21 18 17 16 15 15 15 14
3 4 2 1 3 0 2 3 7 7 5 5 3 7 4 6 5 6 6 8 8 7 7 11 11 16 21 24 28 32 34 34 31 29 28 26 23 20 19 17 16 16 15 15
3 3 3 2 2 3 4 6 6 7 5 7 10 15 7 7 2 4 7 7 9 9 8 10 10 17 22 26 29 30 31 35 34 33 31 28 27 25 22 20 18 17 16 15
5 5 3 4 3 3 8 9 13 7 5 7 9 10 5 2 5 4 7 6 7 8 7 9 13 21 25 29 32 33 36 36 36 33 31 29 29 27 25 23 22 20 18 17
4 5 2 2 3 3 3 2 4 10 4 11 5 7 2 2 5 5 4 5 8 7 7 7 14 19 25 28 31 31 34 37 36 34 34 33 31 29 27 25 24 22 21 19
3 3 3 5 4 8 9 6 8 7 1 5 13 6 5 2 2 3 6 5 6 8 10 13 14 21 22 28 30 30 30 32 34 34 34 36 35 33 31 29 27 25 23 21
6 1 3 3 5 8 5 3 5 3 2 4 6 5 3 3 4 3 7 8 9 16 17 17 9 13 21 26 31 31 32 33 34 37 39 39 37 36 36 33 31 28 25 22
8 5 7 4 3 8 8 1 4 6 6 3 5 6 6 4 2 4 8 7 10 15 20 18 8 11 21 26 32 29 29 34 40 35 38 39 38 38 36 33 32 30 27 23
8 6 5 3 2 11 5 3 5 5 3 6 6 5 5 4 4 5 7 7 11 16 25 23 12 3 11 23 30 26 29 30 30 36 38 39 40 38 36 35 33 31 30 26
3 6 5 7 5 2 3 6 4 4 7 4 6 3 3 4 3 5 6 9 11 14 19 23 14 4 7 20 27 27 27 27 31 36 35 37 38 39 38 37 36 33 32 30
3 2 3 3 2 7 5 4 5 5 6 5 3 2 1 2 5 7 6 7 12 17 17 22 16 8 9 17 25 28 23 28 33 34 35 36 34 35 38 38 37 37 35 32
3 5 4 3 6 8 1 3 4 4 5 4 2 2 1 3 5 4 6 8 15 19 21 21 17 13 15 14 21 24 24 27 31 30 28 29 32 34 35 38 41 41 40 41
3 5 4 3 3 2 5 4 4 4 4 7 5 4 6 6 7 6 6 16 18 20 24 25 21 18 17 15 19 23 26 28 31 28 30 32 31 31 32 33 31 35 38 38
Wind_Direction
17 108 191 201 174 139 132 156 184 169 153 178 238 270 279 220 222 233 230 220 217 210 198 187 183 179 167 149 144 148 150 159 143 140 11 33 46 53 55 56 54 53 55 55
36 226 202 113 142 120 133 140 193 119 108 175 336 281 262 235 230 215 224 219 210 173 164 181 185 184 178 166 157 152 155 158 154 139 102 80 66 60 58 57 57 55 55 56
155 253 132 115 149 140 172 170 172 164 125 115 326 293 316 275 264 249 326 251 197 189 176 179 182 187 183 174 163 153 145 142 139 137 133 107 93 76 64 58 59 56 58 60
120 41 155 129 179 138 190 189 130 128 103 240 11 281 301 279 289 9 331 209 191 175 177 175 177 184 184 175 170 161 147 139 131 125 155 141 135 103 69 64 63 62 62 63
207 136 149 159 177 174 186 102 105 96 102 75 338 53 269 360 314 6 349 324 210 188 180 177 180 181 181 176 171 167 159 148 141 132 132 127 113 102 93 81 74 70 67 66
98 114 71 101 62 34 151 79 53 53 93 26 286 132 283 237 324 321 324 314 252 186 180 174 170 173 171 171 171 166 163 152 149 141 139 134 119 113 104 90 78 74 72 70
30 20 9 96 90 32 134 105 349 355 25 212 169 76 249 327 301 280 312 321 244 173 156 157 158 163 170 174 175 173 171 156 152 146 142 140 124 119 105 93 86 81 76 72
144 239 178 354 156 176 176 175 163 198 186 175 123 226 254 274 328 55 16 8 108 136 149 172 173 173 175 179 179 179 172 164 159 152 140 132 120 114 101 93 89 88 85 80
131 46 328 29 346 52 185 187 133 101 22 78 241 279 314 320 40 26 25 53 171 178 169 171 177 179 180 184 185 184 177 171 167 160 150 142 134 125 119 109 94 88 90 88
177 91 8 332 324 27 194 154 79 2 151 236 289 285 232 262 339 2 4 283 229 211 192 181 178 180 187 190 189 188 185 178 172 166 161 153 146 137 130 121 112 108 99 95
146 107 322 6 207 187 147 182 54 108 141 159 149 258 206 202 17 335 316 216 220 215 208 197 187 182 187 192 192 190 187 182 179 172 168 163 155 145 141 133 123 120 115 107
210 115 145 196 236 218 261 224 176 138 196 94 110 276 182 217 109 227 273 248 238 227 210 191 186 179 182 188 191 193 190 189 187 180 174 172 166 156 150 141 136 129 124 118
177 163 90 24 15 6 215 202 162 118 93 188 143 253 214 223 236 263 288 286 265 241 213 184 180 185 186 188 191 194 195 193 188 185 182 176 173 167 160 152 146 140 133 127
107 97 152 185 129 113 186 190 198 147 128 181 215 264 290 296 324 338 333 320 292 246 203 196 197 194 190 189 192 195 198 197 191 187 187 183 178 175 168 162 157 149 142 137
90 120 106 113 98 79 239 173 174 197 195 190 221 225 251 258 303 307 313 315 311 281 215 207 203 198 194 191 193 198 200 198 196 191 192 188 182 177 173 171 165 157 151 145
1 126 92 342 3 206 254 226 195 215 235 254 262 281 193 284 227 342 310 321 326 307 249 222 208 200 197 196 195 193 195 200 199 196 197 191 183 180 179 175 172 166 161 155
151 131 112 258 355 345 289 201 195 191 193 172 197 227 217 359 333 314 313 312 311 311 287 224 211 208 204 200 194 193 195 198 197 198 199 195 190 184 185 179 177 173 171 164
149 111 102 167 37 256 274 119 186 203 198 215 250 241 212 278 284 286 283 293 314 319 310 262 226 216 209 202 198 193 194 195 194 196 198 197 195 191 189 186 183 178 177 170
158 122 132 157 194 308 290 193 163 168 247 225 230 252 275 267 66 68 3 331 298 298 296 295 267 228 206 197 194 188 186 189 190 194 197 198 199 195 192 191 189 185 182 174
150 258 130 152 158 213 253 261 176 129 343 343 149 144 124 81 88 269 332 333 324 333 339 337 321 221 204 195 190 183 184 187 193 196 203 205 202 201 197 194 192 189 189 180
187 196 206 186 205 281 246 221 177 113 191 73 104 105 60 92 115 300 314 318 328 340 347 4 359 214 206 194 188 185 188 195 203 199 203 205 205 206 202 197 197 192 190 187
177 179 197 144 126 260 158 87 194 152 71 98 80 71 74 53 346 327 325 325 335 353 2 6 12 274 210 197 192 188 198 206 200 200 203 208 205 206 204 200 198 195 193 190
209 183 178 182 211 28 351 125 103 104 105 91 96 83 60 45 0 321 314 325 325 345 358 6 358 334 215 204 206 199 207 199 202 198 202 206 207 204 205 202 199 196 198 194
256 160 167 109 182 139 124 98 103 105 114 129 112 114 49 313 308 309 311 316 325 338 350 357 352 318 247 220 218 223 212 208 205 199 197 200 202 197 204 204 204 198 197 197
211 140 168 260 80 97 306 138 149 147 137 139 187 185 235 249 281 256 302 308 317 325 336 342 338 315 283 249 233 224 216 209 201 192 191 194 196 197 197 204 205 206 211 207
186 190 176 239 139 133 160 186 192 167 187 199 183 216 226 236 267 285 283 305 306 314 325 329 331 325 309 266 243 229 219 212 204 189 191 193 194 198 200 200 203 214 219 217